When you browse on this site, cookies collect data to enhance your experience and personalize the content and advertising you see.
Visit our Privacy Policy to learn more. By continuing to use the site, you agree to this use of cookies and data.
  • In Latvia
  • List of Countries
  • For 7 days
  • Water Temperature
  • Weather Map
  • Weather Widgets
  • user-avatar
    Login

    Hourly Weather Plymouth

    Today, 23 September, Monday

    Time Temperature Precipitation Wind Pressure Humidity
    00:00 +11°C° 0 mm 6 mps 755 mmHg 96%
    01:00 +12°C° 0 mm 5 mps 755 mmHg 96%
    02:00 +12°C° 0 mm 5 mps 755 mmHg 96%
    03:00 +12°C° 0 mm 5 mps 755 mmHg 96%
    04:00 +12°C° 0.1 mm 5 mps 755 mmHg 96%
    05:00 +12°C° 0.1 mm 5 mps 755 mmHg 96%
    06:00 +12°C° 0.1 mm 5 mps 755 mmHg 96%
    07:00 +14°C° 0.1 mm 6 mps 755 mmHg 93%
    08:00 +15°C° 0.1 mm 7 mps 755 mmHg 91%
    09:00 +16°C° 0.1 mm 8 mps 755 mmHg 88%
    10:00 +15°C° 0.8 mm 9 mps 754 mmHg 90%
    11:00 +14°C° 0.8 mm 10 mps 754 mmHg 92%
    12:00 +14°C° 0.8 mm 10 mps 754 mmHg 94%
    13:00 +14°C° 2.1 mm 10 mps 753 mmHg 95%
    14:00 +14°C° 2.1 mm 11 mps 753 mmHg 96%
    15:00 +16°C° 2.1 mm 11 mps 753 mmHg 97%
    16:00 +16°C° 0.2 mm 10 mps 753 mmHg 97%
    17:00 +16°C° 0.2 mm 8 mps 752 mmHg 97%
    18:00 +17°C° 0.2 mm 7 mps 752 mmHg 97%
    19:00 +17°C° 0.1 mm 7 mps 752 mmHg 97%
    20:00 +17°C° 0.1 mm 7 mps 752 mmHg 97%
    21:00 +17°C° 0.1 mm 7 mps 753 mmHg 97%
    22:00 +17°C° 0.2 mm 7 mps 752 mmHg 97%
    23:00 +17°C° 0.2 mm 7 mps 751 mmHg 98%

    Tomorrow, 24 September, Tuesday

    Time Temperature Precipitation Wind Pressure Humidity
    00:00 +17°C° 0.2 mm 8 mps 751 mmHg 98%
    01:00 +17°C° 3.1 mm 8 mps 750 mmHg 97%
    02:00 +16°C° 3.1 mm 9 mps 750 mmHg 97%
    03:00 +16°C° 3.1 mm 10 mps 749 mmHg 96%
    04:00 +16°C° 1.2 mm 9 mps 749 mmHg 96%
    05:00 +16°C° 1.2 mm 8 mps 748 mmHg 96%
    06:00 +15°C° 1.2 mm 7 mps 748 mmHg 96%
    07:00 +16°C° 0.3 mm 7 mps 748 mmHg 93%
    08:00 +16°C° 0.3 mm 7 mps 748 mmHg 90%
    09:00 +16°C° 0.3 mm 7 mps 749 mmHg 86%
    10:00 +16°C° 0.1 mm 8 mps 749 mmHg 83%
    11:00 +17°C° 0.1 mm 8 mps 750 mmHg 80%
    12:00 +17°C° 0.1 mm 9 mps 750 mmHg 76%
    13:00 +17°C° 0.2 mm 9 mps 750 mmHg 79%
    14:00 +16°C° 0.2 mm 9 mps 750 mmHg 82%
    15:00 +16°C° 0.2 mm 9 mps 750 mmHg 85%
    16:00 +15°C° 0.2 mm 9 mps 750 mmHg 86%
    17:00 +13°C° 0.2 mm 9 mps 750 mmHg 87%
    18:00 +13°C° 0.2 mm 8 mps 750 mmHg 88%
    19:00 +13°C° 0.4 mm 9 mps 750 mmHg 90%
    20:00 +13°C° 0.4 mm 10 mps 750 mmHg 92%
    21:00 +13°C° 0.4 mm 11 mps 750 mmHg 94%
    22:00 +13°C° 0.5 mm 11 mps 749 mmHg 94%
    23:00 +13°C° 0.5 mm 11 mps 749 mmHg 93%

    Day after tomorrow, 25 September, Wednesday

    Time Temperature Precipitation Wind Pressure Humidity
    00:00 +14°C° 0.5 mm 10 mps 749 mmHg 93%
    01:00 +14°C° 0.3 mm 11 mps 749 mmHg 92%
    02:00 +14°C° 0.3 mm 11 mps 749 mmHg 92%
    03:00 +14°C° 0.3 mm 11 mps 749 mmHg 92%
    04:00 +13°C° 0.1 mm 10 mps 750 mmHg 91%
    05:00 +13°C° 0.1 mm 10 mps 750 mmHg 91%
    06:00 +13°C° 0.1 mm 9 mps 750 mmHg 90%
    07:00 +13°C° 0 mm 9 mps 750 mmHg 89%
    08:00 +15°C° 0 mm 8 mps 751 mmHg 89%
    09:00 +15°C° 0 mm 7 mps 751 mmHg 88%
    10:00 +16°C° 0.4 mm 7 mps 752 mmHg 90%
    11:00 +16°C° 0.4 mm 7 mps 752 mmHg 92%
    12:00 +16°C° 0.4 mm 7 mps 753 mmHg 94%
    13:00 +16°C° 0.1 mm 7 mps 753 mmHg 93%
    14:00 +16°C° 0.1 mm 7 mps 753 mmHg 92%
    15:00 +17°C° 0.1 mm 8 mps 752 mmHg 91%
    16:00 +17°C° 0.1 mm 7 mps 752 mmHg 92%
    17:00 +16°C° 0.1 mm 7 mps 752 mmHg 94%
    18:00 +16°C° 0.1 mm 6 mps 752 mmHg 96%
    19:00 +16°C° 0.2 mm 7 mps 752 mmHg 96%
    20:00 +16°C° 0.2 mm 7 mps 752 mmHg 97%
    21:00 +16°C° 0.2 mm 8 mps 752 mmHg 97%
    22:00 +17°C° 0.1 mm 8 mps 752 mmHg 96%
    23:00 +17°C° 0.1 mm 8 mps 752 mmHg 95%

    26 September, Thursday

    Time Temperature Precipitation Wind Pressure Humidity
    00:00 +17°C° 0.1 mm 8 mps 752 mmHg 94%
    01:00 +16°C° 0.1 mm 9 mps 752 mmHg 94%
    02:00 +16°C° 0.1 mm 9 mps 752 mmHg 94%
    03:00 +16°C° 0.1 mm 9 mps 752 mmHg 95%
    04:00 +16°C° 0.7 mm 10 mps 752 mmHg 96%
    05:00 +16°C° 0.7 mm 10 mps 752 mmHg 96%
    06:00 +16°C° 0.7 mm 10 mps 752 mmHg 97%
    07:00 +16°C° 0.9 mm 9 mps 752 mmHg 93%
    08:00 +15°C° 0.9 mm 8 mps 752 mmHg 88%
    09:00 +15°C° 0.9 mm 6 mps 753 mmHg 84%
    10:00 +16°C° 0.1 mm 7 mps 753 mmHg 80%
    11:00 +16°C° 0.1 mm 8 mps 753 mmHg 75%
    12:00 +17°C° 0.1 mm 8 mps 754 mmHg 71%
    13:00 +17°C° 0.1 mm 9 mps 754 mmHg 72%
    14:00 +16°C° 0.1 mm 9 mps 754 mmHg 74%
    15:00 +16°C° 0.1 mm 9 mps 754 mmHg 76%
    16:00 +15°C° 0.1 mm 9 mps 754 mmHg 79%
    17:00 +13°C° 0.1 mm 8 mps 754 mmHg 82%
    18:00 +12°C° 0.1 mm 8 mps 754 mmHg 85%
    19:00 +12°C° 0.1 mm 8 mps 754 mmHg 86%
    20:00 +12°C° 0.1 mm 8 mps 755 mmHg 88%
    21:00 +12°C° 0.1 mm 8 mps 755 mmHg 89%
    22:00 +12°C° 0.2 mm 8 mps 755 mmHg 89%
    23:00 +12°C° 0.2 mm 8 mps 755 mmHg 89%

    27 September, Friday

    Time Temperature Precipitation Wind Pressure Humidity
    00:00 +12°C° 0.2 mm 8 mps 755 mmHg 89%
    01:00 +12°C° 0.2 mm 8 mps 755 mmHg 89%
    02:00 +12°C° 0.2 mm 8 mps 755 mmHg 90%
    03:00 +11°C° 0.2 mm 8 mps 754 mmHg 90%
    04:00 +11°C° 0.1 mm 8 mps 754 mmHg 89%
    05:00 +12°C° 0.1 mm 8 mps 754 mmHg 89%
    06:00 +12°C° 0.1 mm 8 mps 754 mmHg 88%
    07:00 +12°C° 0.2 mm 8 mps 754 mmHg 85%
    08:00 +13°C° 0.2 mm 8 mps 755 mmHg 83%
    09:00 +15°C° 0.2 mm 9 mps 755 mmHg 80%
    10:00 +15°C° 0.2 mm 9 mps 755 mmHg 80%
    11:00 +14°C° 0.2 mm 10 mps 755 mmHg 79%
    12:00 +14°C° 0.2 mm 10 mps 755 mmHg 79%
    13:00 +14°C° 0.2 mm 10 mps 755 mmHg 79%
    14:00 +14°C° 0.2 mm 10 mps 755 mmHg 78%
    15:00 +14°C° 0.2 mm 10 mps 755 mmHg 78%
    16:00 +13°C° 0.1 mm 10 mps 755 mmHg 80%
    17:00 +12°C° 0.1 mm 9 mps 755 mmHg 82%
    18:00 +11°C° 0.1 mm 9 mps 755 mmHg 84%
    19:00 +12°C° 0.1 mm 9 mps 756 mmHg 85%
    20:00 +12°C° 0.1 mm 9 mps 756 mmHg 86%
    21:00 +12°C° 0.1 mm 10 mps 756 mmHg 87%
    22:00 +12°C° 0.2 mm 10 mps 756 mmHg 86%
    23:00 +12°C° 0.2 mm 10 mps 756 mmHg 86%

    28 September, Saturday

    Time Temperature Precipitation Wind Pressure Humidity
    00:00 +12°C° 0.2 mm 10 mps 756 mmHg 86%
    01:00 +12°C° 0.1 mm 9 mps 756 mmHg 87%
    02:00 +11°C° 0.1 mm 9 mps 756 mmHg 88%
    03:00 +11°C° 0.1 mm 9 mps 756 mmHg 89%
    04:00 +11°C° 0 mm 9 mps 756 mmHg 89%
    05:00 +11°C° 0 mm 8 mps 756 mmHg 89%
    06:00 +11°C° 0 mm 8 mps 756 mmHg 89%
    07:00 +12°C° 0 mm 8 mps 757 mmHg 87%
    08:00 +13°C° 0 mm 9 mps 757 mmHg 84%
    09:00 +15°C° 0 mm 9 mps 757 mmHg 81%
    10:00 +15°C° 0.1 mm 9 mps 758 mmHg 79%
    11:00 +16°C° 0.1 mm 9 mps 758 mmHg 77%
    12:00 +16°C° 0.1 mm 8 mps 758 mmHg 76%
    13:00 +16°C° 0.1 mm 8 mps 758 mmHg 77%
    14:00 +15°C° 0.1 mm 8 mps 758 mmHg 78%
    15:00 +15°C° 0.1 mm 8 mps 758 mmHg 79%
    16:00 +14°C° 0 mm 7 mps 757 mmHg 82%
    17:00 +13°C° 0 mm 6 mps 757 mmHg 84%
    18:00 +11°C° 0 mm 6 mps 757 mmHg 86%
    19:00 +13°C° 0 mm 6 mps 757 mmHg 86%
    20:00 +13°C° 0 mm 6 mps 757 mmHg 87%
    21:00 +13°C° 0 mm 6 mps 756 mmHg 87%
    22:00 +12°C° 0.1 mm 7 mps 756 mmHg 88%
    23:00 +13°C° 0.1 mm 8 mps 755 mmHg 89%
    Show more